GW5072 Weather Reports


time (UTC)temp
F
wind
direction
speed
knots
gust
knots
rain 1hr
in
rain 24hr
in
rain mn
in
humidity
%
barometer
mb
20260510201007 92 209 0.0 4.3 0.00 0.00 0.00 61 1013.2
20260510200505 91 92 0.0 1.7 0.00 0.00 0.00 60 1013.1
20260510200026 90 245 0.0 1.7 0.00 0.00 0.00 65 1013.2
20260510195507 89 271 0.0 1.7 0.00 0.00 0.00 63 1013.3
20260510195009 89 92 0.0 1.7 0.00 0.00 0.00 62 1013.3
20260510194523 90 94 0.9 2.6 0.00 0.00 0.00 62 1013.1
20260510194003 91 70 0.9 2.6 0.00 0.00 0.00 60 1013.3
20260510193508 92 53 0.0 3.5 0.00 0.00 0.00 59 1013.2
20260510193020 92 244 0.9 3.5 0.00 0.00 0.00 57 1013.1
20260510192503 92 155 0.0 2.6 0.00 0.00 0.00 59 1013.3
20260510192007 91 277 0.0 2.6 0.00 0.00 0.00 58 1013.4
20260510191521 91 99 0.0 1.7 0.00 0.00 0.00 59 1013.4
20260510191009 91 88 0.0 3.5 0.00 0.00 0.00 61 1013.2
20260510190507 90 146 0.0 3.5 0.00 0.00 0.00 61 1013.2
20260510190027 90 101 0.9 2.6 0.00 0.00 0.00 61 1013.2
20260510185512 89 201 0.0 3.5 0.00 0.00 0.00 63 1013.1
20260510185008 89 100 0.9 3.5 0.00 0.00 0.00 63 1013.2
20260510184512 89 202 0.0 2.6 0.00 0.00 0.00 64 1013.3
20260510184009 88 135 0.9 2.6 0.00 0.00 0.00 66 1013.3
20260510183510 87 104 0.9 2.6 0.00 0.00 0.00 66 1013.4
20260510183028 87 91 0.9 2.6 0.00 0.00 0.00 66 1013.6
20260510182511 88 89 1.7 2.6 0.00 0.00 0.00 63 1013.6
20260510182007 89 92 0.9 3.5 0.00 0.00 0.00 64 1013.6
20260510181509 89 108 0.0 3.5 0.00 0.00 0.00 62 1013.7
20260510181002 89 85 0.0 2.6 0.00 0.00 0.00 65 1013.7
20260510180503 89 115 0.9 3.5 0.00 0.00 0.00 65 1013.7
20260510180005 89 85 0.0 5.2 0.00 0.00 0.00 66 1013.7
20260510175505 88 189 0.9 5.2 0.00 0.00 0.00 66 1013.8
20260510175007 87 120 0.9 4.3 0.00 0.00 0.00 68 1013.8
20260510174505 87 70 0.9 4.3 0.00 0.00 0.00 68 1013.9
20260510174004 87 62 0.9 3.5 0.00 0.00 0.00 68 1013.9
20260510173503 87 173 0.9 2.6 0.00 0.00 0.00 72 1014.0
20260510173004 86 108 0.0 2.6 0.00 0.00 0.00 69 1014.0
20260510172504 86 120 0.9 2.6 0.00 0.00 0.00 68 1014.1
20260510172004 86 65 0.0 1.7 0.00 0.00 0.00 70 1014.2
20260510171513 86 71 0.9 1.7 0.00 0.00 0.00 69 1014.4
20260510171004 86 91 0.9 1.7 0.00 0.00 0.00 70 1014.4
20260510170503 85 113 0.0 2.6 0.00 0.00 0.00 73 1014.4
20260510170014 84 113 0.0 3.5 0.00 0.00 0.00 72 1014.3
20260510165506 84 108 0.0 3.5 0.00 0.00 0.00 72 1014.4
20260510165004 84 118 0.9 2.6 0.00 0.00 0.00 73 1014.6
20260510164514 84 110 0.9 3.5 0.00 0.00 0.00 74 1014.5
20260510164003 83 82 0.0 3.5 0.00 0.00 0.00 76 1014.5
20260510163503 83 112 0.9 3.5 0.00 0.00 0.00 76 1014.5
20260510163010 83 71 0.9 3.5 0.00 0.00 0.00 75 1014.7
20260510162503 82 70 0.0 2.6 0.00 0.00 0.00 75 1014.7
20260510162007 82 91 0.9 2.6 0.00 0.00 0.00 75 1014.6
20260510161511 82 105 0.0 2.6 0.00 0.00 0.00 76 1014.6
20260510161009 82 124 0.0 1.7 0.00 0.00 0.00 76 1014.8
20260510160504 81 127 0.0 2.6 0.00 0.00 0.00 76 1015.0
20260510160007 81 100 0.0 2.6 0.00 0.00 0.00 77 1015.0
20260510155506 81 102 0.0 2.6 0.00 0.00 0.00 78 1014.9
20260510155003 81 87 0.0 2.6 0.00 0.00 0.00 79 1015.0
20260510154508 80 65 0.9 2.6 0.00 0.00 0.00 80 1015.0
20260510154010 80 61 0.0 2.6 0.00 0.00 0.00 78 1015.0
20260510153504 80 75 0.0 2.6 0.00 0.00 0.00 81 1015.1
20260510153035 80 71 0.0 2.6 0.00 0.00 0.00 79 1015.1
20260510152503 80 97 0.0 0.9 0.00 0.00 0.00 80 1015.1
20260510152003 79 110 0.0 1.7 0.00 0.00 0.00 82 1015.2
20260510151516 79 72 0.0 2.6 0.00 0.00 0.00 82 1015.1
20260510151003 79 89 0.0 2.6 0.00 0.00 0.00 81 1015.2
20260510150503 78 72 0.0 0.9 0.00 0.00 0.00 83 1015.1
20260510150018 78 80 0.0 0.9 0.00 0.00 0.00 85 1015.2
20260510145505 78 80 0.0 0.9 0.00 0.00 0.00 84 1015.3
20260510145007 78 91 0.0 0.9 0.00 0.00 0.00 86 1015.3
20260510144541 77 94 0.0 1.7 0.00 0.00 0.00 86 1015.4
20260510144004 77 95 0.0 1.7 0.00 0.00 0.00 87 1015.4
20260510143505 77 96 0.0 1.7 0.00 0.00 0.00 88 1015.4
20260510143013 77 75 0.0 1.7 0.00 0.00 0.00 88 1015.4
20260510142510 76 150 0.0 0.0 0.00 0.00 0.00 89 1015.3
20260510142006 76 52 0.0 0.9 0.00 0.00 0.00 90 1015.5
20260510141513 76 72 0.0 2.6 0.00 0.00 0.00 91 1015.4
20260510141008 75 67 0.0 2.6 0.00 0.00 0.00 91 1015.4
20260510140504 75 68 0.0 2.6 0.00 0.00 0.00 92 1015.4
20260510140008 75 66 0.0 1.7 0.00 0.00 0.00 92 1015.4
20260510135504 74 305 0.0 0.9 0.00 0.00 0.00 93 1015.5
20260510135004 74 260 0.0 0.9 0.00 0.00 0.00 93 1015.4
20260510134518 74 260 0.0 0.9 0.00 0.00 0.00 93 1015.3
20260510134005 73 260 0.0 0.9 0.00 0.00 0.00 94 1015.3
20260510133502 73 260 0.0 0.9 0.00 0.00 0.00 94 1015.3
20260510133020 73 260 0.0 0.9 0.00 0.00 0.00 94 1015.3
20260510132508 73 260 0.0 0.9 0.00 0.00 0.00 94 1015.1
20260510132003 73 260 0.0 0.0 0.00 0.00 0.00 94 1015.0
20260510131521 72 260 0.0 0.9 0.00 0.00 0.00 95 1014.7
20260510131010 72 260 0.0 0.9 0.00 0.00 0.00 95 1014.6
20260510130506 72 267 0.0 0.0 0.00 0.00 0.00 95 1014.4
20260510130019 72 268 0.0 0.0 0.00 0.00 0.00 95 1014.3
20260510125503 72 267 0.0 0.0 0.00 0.00 0.00 95 1014.2
20260510125008 72 268 0.0 0.0 0.00 0.00 0.00 95 1014.2
20260510124520 71 267 0.0 0.0 0.00 0.00 0.00 95 1014.0
20260510124005 71 267 0.0 0.0 0.00 0.00 0.00 95 1014.0
20260510123510 71 267 0.0 0.0 0.00 0.00 0.00 95 1014.0
20260510123015 71 267 0.0 0.0 0.00 0.00 0.00 95 1013.8
20260510122508 71 267 0.0 0.0 0.00 0.00 0.00 95 1013.8
20260510122010 71 267 0.0 0.0 0.00 0.00 0.00 95 1013.7
20260510121523 71 267 0.0 0.0 0.00 0.00 0.00 95 1013.7
20260510121009 71 267 0.0 0.0 0.00 0.00 0.00 95 1013.5
20260510120510 71 267 0.0 0.0 0.00 0.00 0.00 95 1013.5
20260510120023 71 267 0.0 0.0 0.00 0.00 0.00 95 1013.5
20260510115511 71 267 0.0 0.0 0.00 0.00 0.00 95 1013.5
20260510115010 71 267 0.0 0.0 0.00 0.00 0.00 95 1013.3
20260510114522 71 267 0.0 0.0 0.00 0.00 0.00 95 1013.0
20260510114009 71 267 0.0 0.0 0.00 0.00 0.00 95 1012.9
20260510113507 71 267 0.0 0.0 0.00 0.00 0.00 95 1012.9
20260510113023 71 268 0.0 0.0 0.00 0.00 0.00 95 1012.9
20260510112505 71 267 0.0 0.0 0.00 0.00 0.00 95 1012.8
20260510112008 71 268 0.0 0.0 0.00 0.00 0.00 95 1012.8
20260510111523 71 267 0.0 0.0 0.00 0.00 0.00 95 1012.5
20260510111011 71 267 0.0 0.0 0.00 0.00 0.00 95 1012.3
20260510110508 71 267 0.0 0.0 0.00 0.00 0.00 95 1012.2
20260510110025 71 268 0.0 0.0 0.00 0.00 0.00 95 1012.0
20260510105509 71 267 0.0 0.0 0.00 0.00 0.00 96 1011.9
20260510105010 71 267 0.0 0.0 0.00 0.00 0.00 96 1011.9
20260510104523 71 267 0.0 0.0 0.00 0.00 0.00 96 1011.8
20260510104006 71 268 0.0 0.0 0.00 0.00 0.00 96 1011.7
20260510103507 71 268 0.0 0.9 0.00 0.00 0.00 96 1011.6
20260510103023 71 267 0.0 0.9 0.00 0.00 0.00 96 1011.6
20260510102509 71 255 0.0 0.0 0.00 0.00 0.00 96 1011.6
20260510102009 70 257 0.0 0.0 0.00 0.00 0.00 96 1011.7
20260510101524 70 256 0.0 0.9 0.00 0.00 0.00 96 1011.7
20260510101010 70 257 0.0 1.7 0.00 0.00 0.00 97 1011.6
20260510100508 69 228 0.0 1.7 0.00 0.00 0.00 97 1011.5
20260510100026 68 122 0.0 0.0 0.00 0.00 0.00 96 1011.4
20260510095508 68 80 0.0 0.0 0.00 0.00 0.00 96 1011.5
20260510095011 67 80 0.0 0.0 0.00 0.00 0.00 95 1011.4
20260510094528 67 80 0.0 0.0 0.00 0.00 0.00 95 1011.4
20260510094007 67 80 0.0 0.0 0.00 0.00 0.00 95 1011.4
20260510093510 67 80 0.0 0.0 0.00 0.00 0.00 95 1011.4
20260510093025 67 80 0.0 0.0 0.00 0.00 0.00 95 1011.3
20260510092514 67 80 0.0 0.0 0.00 0.00 0.00 94 1011.3
20260510092012 67 80 0.0 0.0 0.00 0.00 0.00 94 1011.2
20260510091503 68 80 0.0 0.0 0.00 0.00 0.00 94 1011.2
20260510091006 68 80 0.0 0.0 0.00 0.00 0.00 95 1011.0
20260510090504 68 80 0.0 0.0 0.00 0.00 0.00 95 1011.1
20260510090006 68 80 0.0 0.0 0.00 0.00 0.00 95 1011.1
20260510085511 68 80 0.0 0.0 0.00 0.00 0.00 95 1011.1
20260510085003 67 80 0.0 0.0 0.00 0.00 0.00 94 1011.2
20260510084540 68 80 0.0 0.0 0.00 0.00 0.00 94 1011.2
20260510084004 68 80 0.0 0.0 0.00 0.00 0.00 94 1011.2
20260510083503 68 80 0.0 0.0 0.00 0.00 0.00 94 1011.2
20260510083017 68 80 0.0 0.0 0.00 0.00 0.00 94 1011.1
20260510082503 68 80 0.0 0.0 0.00 0.00 0.00 94 1011.2
20260510082002 69 80 0.0 0.0 0.00 0.00 0.00 94 1011.3
20260510081528 69 80 0.0 0.0 0.00 0.00 0.00 95 1011.3
20260510081003 69 80 0.0 0.0 0.00 0.00 0.00 94 1011.4
20260510080505 69 80 0.0 0.0 0.00 0.00 0.00 94 1011.3
20260510080012 69 80 0.0 0.0 0.00 0.00 0.00 94 1011.3
20260510075503 69 81 0.0 0.0 0.00 0.00 0.00 94 1011.3
20260510075009 68 80 0.0 0.0 0.00 0.00 0.00 94 1011.3
20260510074511 68 80 0.0 0.0 0.00 0.00 0.00 94 1011.2
20260510074009 69 80 0.0 0.0 0.00 0.00 0.00 94 1011.4
20260510073506 69 80 0.0 0.0 0.00 0.00 0.00 94 1011.3
20260510073003 69 80 0.0 0.0 0.00 0.00 0.00 94 1011.3
20260510072507 69 80 0.0 0.0 0.00 0.00 0.00 93 1011.2
20260510072003 69 80 0.0 0.0 0.00 0.00 0.00 94 1011.2
20260510071504 69 80 0.0 0.0 0.00 0.00 0.00 93 1011.2
20260510071006 69 80 0.0 0.0 0.00 0.00 0.00 93 1011.5
20260510070506 69 80 0.0 0.0 0.00 0.00 0.00 93 1011.6
20260510070024 69 80 0.0 0.0 0.00 0.00 0.00 93 1011.4
20260510065510 69 80 0.0 0.0 0.00 0.00 0.00 93 1011.4
20260510065004 70 80 0.0 0.0 0.00 0.00 0.00 93 1011.6
20260510064520 70 80 0.0 0.0 0.00 0.00 0.00 93 1011.7
20260510064005 70 80 0.0 0.0 0.00 0.00 0.00 93 1011.8
20260510063502 70 80 0.0 0.0 0.00 0.00 0.00 93 1011.8
20260510063017 70 80 0.0 0.0 0.00 0.00 0.00 93 1011.8
20260510062504 70 80 0.0 0.0 0.00 0.00 0.00 93 1011.8
20260510062009 70 80 0.0 0.0 0.00 0.00 0.00 93 1011.9
20260510061514 70 80 0.0 0.0 0.00 0.00 0.00 92 1011.9
20260510061003 70 80 0.0 0.0 0.00 0.00 0.00 92 1011.9
20260510060507 71 80 0.0 0.0 0.00 0.00 0.00 91 1011.8
20260510060021 71 80 0.0 0.0 0.00 0.00 0.00 91 1011.7
20260510055507 71 80 0.0 0.0 0.00 0.00 0.00 91 1011.8
20260510055004 71 80 0.0 0.0 0.00 0.00 0.00 90 1011.8
20260510054511 71 80 0.0 0.0 0.00 0.00 0.00 91 1011.8
20260510054009 71 80 0.0 0.0 0.00 0.00 0.00 90 1011.9
20260510053505 71 80 0.0 0.0 0.00 0.00 0.00 90 1011.7
20260510053009 72 80 0.0 0.0 0.00 0.00 0.00 89 1011.8
20260510052506 72 80 0.0 0.0 0.00 0.00 0.00 89 1012.0
20260510052007 72 80 0.0 0.9 0.00 0.00 0.00 89 1011.9
20260510051526 72 80 0.0 0.9 0.00 0.00 0.00 89 1011.8
20260510051008 72 80 0.0 0.0 0.00 0.00 0.00 88 1011.8
20260510050502 72 81 0.0 0.0 0.00 0.00 0.00 88 1011.8
20260510050024 72 79 0.0 0.0 0.00 0.00 0.00 87 1011.9
20260510045506 72 79 0.0 0.9 0.00 0.00 0.00 87 1011.8
20260510045004 72 81 0.0 0.9 0.00 0.00 0.00 86 1011.8
20260510044522 73 82 0.0 0.0 0.00 0.00 0.00 85 1011.8
20260510044007 73 81 0.0 0.9 0.00 0.00 0.00 85 1012.0
20260510043510 73 82 0.0 0.9 0.00 0.00 0.00 85 1011.9
20260510043020 73 82 0.0 0.9 0.00 0.00 0.00 84 1011.9
20260510042505 73 82 0.0 0.9 0.00 0.00 0.00 84 1011.9
20260510042009 73 82 0.0 0.9 0.00 0.00 0.00 83 1011.9
20260510041517 74 81 0.0 0.9 0.00 0.00 0.00 82 1011.9
20260510041003 74 80 0.0 0.9 0.00 0.00 0.00 82 1011.9
20260510040508 74 107 0.0 0.9 0.00 0.00 0.00 81 1011.8
20260510040012 74 86 0.0 0.9 0.00 0.00 0.00 80 1011.9
20260510035509 74 82 0.0 0.0 0.00 0.00 0.00 80 1011.9
20260510035007 74 89 0.0 0.9 0.00 0.00 0.00 80 1011.9
20260510034512 75 89 0.0 0.9 0.00 0.00 0.00 79 1011.9
20260510034010 75 91 0.0 2.6 0.00 0.00 0.00 79 1012.1
20260510033507 75 96 0.0 2.6 0.00 0.00 0.00 79 1012.1
20260510033027 75 100 0.9 2.6 0.00 0.00 0.00 78 1011.9
20260510032508 75 105 0.9 2.6 0.00 0.00 0.00 78 1012.1
20260510032007 75 95 0.0 4.3 0.00 0.00 0.00 78 1012.2
20260510031507 76 130 0.0 4.3 0.00 0.00 0.00 79 1012.1
20260510031008 76 74 1.7 4.3 0.00 0.00 0.00 80 1012.1
20260510030503 76 101 0.9 3.5 0.00 0.00 0.00 81 1012.0
20260510030006 76 69 0.9 2.6 0.00 0.00 0.00 79 1012.0
20260510025507 75 60 0.9 2.6 0.00 0.00 0.00 79 1011.9
20260510025003 74 100 0.0 0.9 0.00 0.00 0.00 80 1011.8
20260510024532 74 100 0.0 0.9 0.00 0.00 0.00 80 1011.4
20260510024003 74 100 0.0 0.9 0.00 0.00 0.00 80 1011.1
20260510023505 74 101 0.0 0.9 0.00 0.00 0.00 81 1010.7
20260510023022 74 218 0.0 0.0 0.00 0.00 0.00 80 1010.4
20260510022504 75 219 0.0 0.0 0.00 0.00 0.00 80 1010.4
20260510022006 75 218 0.0 0.0 0.00 0.00 0.00 79 1010.3
20260510021522 75 218 0.0 0.0 0.00 0.00 0.00 78 1010.1
20260510021003 76 218 0.0 0.0 0.00 0.00 0.00 77 1010.0
20260510020506 76 218 0.0 0.0 0.00 0.00 0.00 76 1010.1
20260510020018 77 219 0.0 0.0 0.00 0.00 0.00 76 1010.1
20260510015505 77 218 0.0 0.0 0.00 0.00 0.00 76 1009.9
20260510015005 78 219 0.0 0.0 0.00 0.00 0.00 75 1009.8
20260510014513 78 218 0.0 0.0 0.00 0.00 0.00 75 1009.8
20260510014008 79 219 0.0 0.0 0.00 0.00 0.00 73 1009.9
20260510013507 79 217 0.0 0.0 0.00 0.00 0.00 74 1009.7
20260510013009 80 217 0.0 0.0 0.00 0.00 0.00 73 1009.7
20260510012508 80 226 0.0 0.0 0.00 0.00 0.00 76 1009.7
20260510012004 80 226 0.0 0.9 0.00 0.00 0.00 77 1009.6
20260510011507 81 207 0.0 1.7 0.00 0.00 0.00 78 1009.6
20260510011007 81 103 0.0 1.7 0.00 0.00 0.00 81 1009.3
20260510010504 82 62 0.0 0.0 0.00 0.00 0.00 85 1009.3
20260510010025 82 217 0.0 0.0 0.00 0.00 0.00 85 1009.1
20260510005505 82 217 0.0 0.0 0.00 0.00 0.00 84 1008.8
20260510005002 82 217 0.0 0.0 0.00 0.00 0.00 85 1008.7
20260510004525 82 217 0.0 0.0 0.00 0.00 0.00 85 1008.6
20260510004008 82 217 0.0 0.0 0.00 0.00 0.00 85 1008.7
20260510003503 82 217 0.0 0.0 0.00 0.00 0.00 85 1008.8
20260510003030 82 217 0.0 0.0 0.00 0.00 0.00 84 1008.8
20260510002505 82 217 0.0 0.0 0.00 0.00 0.00 84 1008.8
20260510002014 82 217 0.0 0.0 0.00 0.00 0.00 84 1008.7
20260510001521 82 217 0.0 0.0 0.00 0.00 0.00 83 1008.6
20260510001004 82 217 0.0 0.0 0.00 0.00 0.00 83 1008.6
20260510000508 82 217 0.0 0.0 0.00 0.00 0.00 83 1008.5
20260510000018 82 217 0.0 0.0 0.00 0.00 0.00 83 1008.5
20260509235501 82 217 0.0 0.0 0.00 0.00 0.00 83 1008.5
20260509235013 82 217 0.0 0.0 0.00 0.00 0.00 82 1008.4
20260509234527 82 217 0.0 0.0 0.00 0.00 0.00 82 1008.5
20260509234010 82 217 0.0 0.0 0.00 0.00 0.00 82 1008.6
20260509233508 82 217 0.0 0.0 0.00 0.00 0.00 81 1008.6
20260509233010 83 217 0.0 0.0 0.00 0.00 0.00 81 1008.6
20260509232507 83 217 0.0 0.0 0.00 0.00 0.00 81 1008.6
20260509232007 83 217 0.0 0.0 0.00 0.00 0.00 80 1008.7
20260509231528 83 217 0.0 0.0 0.00 0.00 0.00 78 1008.5
20260509231007 84 217 0.0 0.0 0.00 0.00 0.00 78 1008.6
20260509230513 84 217 0.0 0.0 0.00 0.00 0.00 76 1008.3
20260509230024 84 217 0.0 0.0 0.00 0.00 0.00 76 1008.4
20260509225505 85 217 0.0 0.0 0.00 0.00 0.00 75 1008.2
20260509225004 86 217 0.0 0.0 0.00 0.00 0.00 74 1008.2
20260509224525 86 217 0.0 0.0 0.00 0.00 0.00 71 1008.2
20260509224005 87 217 0.0 0.0 0.00 0.00 0.00 69 1008.3
20260509223508 87 217 0.0 0.0 0.00 0.00 0.00 69 1008.2
20260509223023 88 217 0.0 0.0 0.00 0.00 0.00 68 1008.1
20260509222503 89 217 0.0 0.0 0.00 0.00 0.00 66 1008.3
20260509222010 90 217 0.0 0.0 0.00 0.00 0.00 62 1008.1
20260509221522 90 217 0.0 0.0 0.00 0.00 0.00 63 1008.0
20260509221004 90 217 0.0 0.0 0.00 0.00 0.00 62 1008.1
20260509220508 91 217 0.0 0.9 0.00 0.00 0.00 63 1008.0
20260509220019 90 215 0.0 0.9 0.00 0.00 0.00 66 1008.1
20260509215516 90 324 0.0 0.0 0.00 0.00 0.00 67 1008.1
20260509215011 90 324 0.0 0.0 0.00 0.00 0.00 64 1008.2
20260509214515 91 324 0.0 0.0 0.00 0.00 0.00 66 1008.2
20260509214014 90 324 0.0 0.0 0.00 0.00 0.00 64 1008.2
20260509213507 91 325 0.0 0.9 0.00 0.00 0.00 64 1008.2
20260509213028 91 325 0.0 0.9 0.00 0.00 0.00 61 1008.1
20260509212506 93 75 0.0 0.9 0.00 0.00 0.00 60 1008.1
20260509212007 93 114 0.0 0.9 0.00 0.00 0.00 60 1008.2
20260509211527 95 85 0.0 1.7 0.00 0.00 0.00 56 1008.3
20260509211006 95 242 0.0 1.7 0.00 0.00 0.00 60 1008.2
20260509210503 94 1 0.0 1.7 0.00 0.00 0.00 61 1008.4
20260509210029 94 316 0.0 0.9 0.00 0.00 0.00 56 1008.5
20260509205506 94 236 0.0 0.9 0.00 0.00 0.00 60 1008.6
20260509205008 93 235 0.0 0.9 0.00 0.00 0.00 61 1008.6
20260509204524 91 40 0.0 1.7 0.00 0.00 0.00 66 1008.7
20260509204007 92 40 0.9 1.7 0.00 0.00 0.00 60 1008.7
20260509203511 94 226 0.0 0.9 0.00 0.00 0.00 60 1008.8
20260509203025 93 224 0.0 0.9 0.00 0.00 0.00 61 1008.8
20260509202505 93 224 0.0 0.9 0.00 0.00 0.00 63 1009.0
20260509202018 92 115 0.0 1.7 0.00 0.00 0.00 62 1008.9
20260509201523 91 218 0.0 1.7 0.00 0.00 0.00 62 1008.9